OM2WX-6 Weather Reports


time (UTC)temp
C
wind
direction
speed
KPH
gust
KPH
rain 1hr
cm
rain 24hr
cm
rain mn
cm
humidity
%
barometer
mb
20260507025942 -17 180 0.0 0.0 0.00 0.00 0.00 1004.5
20260507025442 -17 180 0.0 0.0 0.00 0.00 0.00 1000.7
20260507024942 16 180 0.0 0.0 0.00 0.00 0.00 67 1001.2
20260507024442 16 180 0.0 0.0 0.00 0.00 0.00 67 1001.2
20260507023942 16 202 0.0 0.0 0.00 0.00 0.00 67 1002.8
20260507023442 16 202 0.0 0.0 0.00 0.00 0.00 67 1003.4
20260507022942 -17 202 0.0 0.0 0.00 0.00 0.00 1004.5
20260507022442 -17 202 0.0 0.0 0.00 0.00 0.00 1004.1
20260507021942 16 202 0.0 0.0 0.00 0.00 0.00 67 998.5
20260507021442 16 202 0.0 0.0 0.00 0.00 0.00 67 1001.9
20260507020942 16 202 0.0 0.0 0.00 0.00 0.00 67 1001.9
20260507020442 -17 202 0.0 0.0 0.00 0.00 0.00 1004.3
20260507015942 -17 202 0.0 0.0 0.00 0.00 0.00 1004.2
20260507015442 -17 202 0.0 0.0 0.00 0.00 0.00 997.4
20260507014942 16 202 0.0 0.0 0.00 0.00 0.00 67 1002.2
20260507014442 16 202 0.0 0.0 0.00 0.00 0.00 67 1002.2
20260507013942 16 202 0.0 0.0 0.00 0.00 0.00 66 1002.6
20260507013442 16 202 0.0 0.0 0.00 0.00 0.00 66 1002.5
20260507012942 16 202 0.0 0.0 0.00 0.00 0.00 66 1002.3
20260507012442 16 202 0.0 0.0 0.00 0.00 0.00 66 1002.3
20260507011942 16 202 0.0 0.0 0.00 0.00 0.00 66 1003.3
20260507011442 -17 202 0.0 0.0 0.00 0.00 0.00 1004.3
20260507010942 -17 202 0.0 0.0 0.00 0.00 0.00 1004.0
20260507010442 17 202 0.0 0.0 0.00 0.00 0.00 65 998.6
20260507005942 17 202 0.0 0.0 0.00 0.00 0.00 65 1001.9
20260507005442 17 202 0.0 0.0 0.00 0.00 0.00 65 1001.9
20260507004942 17 202 0.0 0.0 0.00 0.00 0.00 65 1002.7
20260507004442 -17 202 0.0 0.0 0.00 0.00 0.00 1003.8
20260507003942 -17 202 0.0 0.0 0.00 0.00 0.00 1003.2
20260507003442 17 202 0.0 0.0 0.00 0.00 0.00 65 998.2
20260507002942 17 202 0.0 0.0 0.00 0.00 0.00 65 1001.4
20260507002442 17 202 0.0 8.0 0.00 0.00 0.00 65 1001.6
20260507001942 -17 202 0.0 8.0 0.00 0.00 0.00 1003.7
20260507001442 -17 202 0.0 0.0 0.00 0.00 0.00 1003.4
20260507000942 -17 202 0.0 0.0 0.00 0.00 0.00 996.6
20260507000442 17 202 8.0 8.0 0.00 0.00 0.00 65 999.2
20260506235942 17 202 8.0 8.0 0.00 0.00 0.00 65 1001.3
20260506235442 17 202 0.0 3.2 0.00 0.00 0.00 65 1001.4
20260506234942 17 202 4.8 4.8 0.00 0.00 0.00 65 1003.0
20260506234442 -17 202 0.0 0.0 0.00 0.00 0.00 1003.3
20260506233942 -17 202 0.0 0.0 0.00 0.00 0.00 1001.9
20260506233442 17 202 0.0 0.0 0.00 0.00 0.00 64 999.3
20260506232942 17 202 0.0 0.0 0.00 0.00 0.00 64 999.3
20260506232442 17 270 0.0 9.7 0.00 0.00 0.00 64 1001.2
20260506231942 17 270 0.0 1.6 0.00 0.00 0.00 64 1000.8
20260506231442 17 202 0.0 0.0 0.00 0.00 0.00 64 1002.6
20260506230942 17 270 0.0 0.0 0.00 0.00 0.00 64 1002.7
20260506230442 17 270 0.0 0.0 0.00 0.00 0.00 64 1002.6
20260506225942 17 270 0.0 0.0 0.00 0.00 0.00 64 1001.7
20260506225442 17 270 0.0 0.0 0.00 0.00 0.00 64 1000.8
20260506224942 17 270 0.0 9.7 0.00 0.00 0.00 64 1000.5
20260506224442 17 202 9.7 9.7 0.00 0.00 0.00 63 1000.3
20260506223942 18 202 0.0 0.0 0.00 0.00 0.00 63 1001.6
20260506223442 -17 270 0.0 0.0 0.00 0.00 0.00 1002.0
20260506222942 -17 270 0.0 0.0 0.00 0.00 0.00 999.3
20260506222442 18 270 0.0 0.0 0.00 0.00 0.00 63 996.1
20260506221942 18 270 0.0 0.0 0.00 0.00 0.00 63 998.8
20260506221442 18 202 0.0 4.8 0.00 0.00 0.00 63 999.7
20260506220942 18 202 0.0 0.0 0.00 0.00 0.00 62 1001.5
20260506220442 -17 112 0.0 0.0 0.00 0.00 0.00 1001.6
20260506215942 -17 112 0.0 0.0 0.00 0.00 0.00 1000.4
20260506215442 18 112 0.0 0.0 0.00 0.00 0.00 62 996.3
20260506214942 18 112 0.0 3.2 0.00 0.00 0.00 62 1000.0
20260506214442 18 180 0.0 3.2 0.00 0.00 0.00 62 999.4
20260506213942 18 22 0.0 3.2 0.00 0.00 0.00 61 999.0
20260506213442 18 90 0.0 0.0 0.00 0.00 0.00 61 999.5
20260506212942 18 202 0.0 4.8 0.00 0.00 0.00 61 1000.3
20260506212442 -17 202 0.0 0.0 0.00 0.00 0.00 1001.5
20260506211942 -17 202 0.0 0.0 0.00 0.00 0.00 1001.2
20260506211442 18 202 0.0 0.0 0.00 0.00 0.00 61 995.3
20260506210942 18 202 0.0 0.0 0.00 0.00 0.00 61 996.4
20260506210442 18 202 0.0 9.7 0.00 0.00 0.00 61 998.6
20260506205942 18 270 0.0 8.0 0.00 0.00 0.00 60 999.8
20260506205442 18 270 0.0 6.4 0.00 0.00 0.00 60 999.9
20260506204942 18 270 0.0 4.8 0.00 0.00 0.00 60 1000.5
20260506204442 -17 202 0.0 0.0 0.00 0.00 0.00 1001.6
20260506203942 -17 202 0.0 0.0 0.00 0.00 0.00 1000.9
20260506203442 19 202 0.0 0.0 0.00 0.00 0.00 59 997.4
20260506202942 19 202 0.0 1.6 0.00 0.00 0.00 59 997.4
20260506202442 19 22 1.6 6.4 0.00 0.00 0.00 59 999.3
20260506201942 19 270 0.0 0.0 0.00 0.00 0.00 58 999.6
20260506201442 -17 270 0.0 0.0 0.00 0.00 0.00 1001.1
20260506200942 -17 270 0.0 0.0 0.00 0.00 0.00 1000.7
20260506200442 20 270 0.0 0.0 0.00 0.00 0.00 57 998.0
20260506195942 20 270 0.0 0.0 0.00 0.00 0.00 57 998.0
20260506195442 20 270 0.0 0.0 0.00 0.00 0.00 57 998.5
20260506194942 20 90 0.0 1.6 0.00 0.00 0.00 57 999.7
20260506194442 20 90 0.0 3.2 0.00 0.00 0.00 57 998.4
20260506193942 20 0 0.0 0.0 0.00 0.00 0.00 57 997.9
20260506193442 20 202 0.0 4.8 0.00 0.00 0.00 56 999.2
20260506192942 20 202 0.0 3.2 0.00 0.00 0.00 56 999.6
20260506192442 20 0 3.2 3.2 0.00 0.00 0.00 56 1000.4
20260506191942 -17 180 0.0 0.0 0.00 0.00 0.00 1000.7
20260506191442 -17 180 0.0 0.0 0.00 0.00 0.00 999.7
20260506190942 20 180 0.0 0.0 0.00 0.00 0.00 55 997.6
20260506190442 20 180 0.0 0.0 0.00 0.00 0.00 55 997.6
20260506185942 20 22 0.0 0.0 0.00 0.00 0.00 55 999.0
20260506185442 20 180 0.0 0.0 0.00 0.00 0.00 55 999.3
20260506184942 20 202 0.0 0.0 0.00 0.00 0.00 55 1000.1
20260506184442 21 270 0.0 0.0 0.00 0.00 0.00 53 1000.9
20260506183942 21 270 0.0 0.0 0.00 0.00 0.00 53 1000.9
20260506183442 21 270 0.0 0.0 0.00 0.00 0.00 53 1000.8
20260506182942 21 270 0.0 0.0 0.00 0.00 0.00 53 1000.4
20260506182442 21 270 0.0 0.0 0.00 0.00 0.00 53 999.5
20260506181942 21 270 0.0 0.0 0.00 0.00 0.00 53 998.9
20260506181442 21 22 0.0 3.2 0.00 0.00 0.00 53 998.6
20260506180943 21 0 0.0 0.0 0.00 0.00 0.00 52 998.7
20260506180443 21 180 0.0 9.7 0.00 0.00 0.00 52 998.4
20260506175943 21 270 0.0 0.0 0.00 0.00 0.00 52 998.8
20260506175443 21 180 0.0 3.2 0.00 0.00 0.00 52 998.3
20260506174943 21 270 0.0 8.0 0.00 0.00 0.00 51 998.5
20260506174443 21 270 0.0 3.2 0.00 0.00 0.00 51 998.9
20260506173943 21 22 0.0 0.0 0.00 0.00 0.00 51 999.7
20260506173443 -17 270 0.0 0.0 0.00 0.00 0.00 1000.3
20260506172943 -17 270 0.0 0.0 0.00 0.00 0.00 998.8
20260506172443 22 270 0.0 0.0 0.00 0.00 0.00 10 995.1
20260506171943 22 270 0.0 0.0 0.00 0.00 0.00 10 1000.2
20260506171443 -17 270 0.0 0.0 0.00 0.00 0.00 1000.4
20260506170943 -17 270 0.0 0.0 0.00 0.00 0.00 999.8
20260506170443 22 270 0.0 0.0 0.00 0.00 0.00 47 995.6
20260506165943 22 270 0.0 0.0 0.00 0.00 0.00 47 995.7
20260506165443 22 270 0.0 4.8 0.00 0.00 0.00 47 999.1
20260506164943 23 0 0.0 12.9 0.00 0.00 0.00 47 998.9
20260506164443 23 112 0.0 0.0 0.00 0.00 0.00 47 999.7
20260506163943 -17 270 0.0 0.0 0.00 0.00 0.00 1000.3
20260506163443 -17 270 0.0 0.0 0.00 0.00 0.00 999.6
20260506162943 23 270 0.0 0.0 0.00 0.00 0.00 47 996.6
20260506162443 23 270 0.0 0.0 0.00 0.00 0.00 47 1000.7
20260506161943 23 270 0.0 0.0 0.00 0.00 0.00 47 1000.7
20260506161443 -17 270 0.0 0.0 0.00 0.00 0.00 1000.5
20260506160943 -17 270 0.0 0.0 0.00 0.00 0.00 1000.0
20260506160443 23 270 0.0 0.0 0.00 0.00 0.00 46 995.5
20260506155943 23 270 0.0 0.0 0.00 0.00 0.00 46 998.2
20260506155443 23 270 0.0 3.2 0.00 0.00 0.00 46 999.4
20260506154943 23 202 0.0 6.4 0.00 0.00 0.00 46 999.2
20260506154443 23 292 0.0 0.0 0.00 0.00 0.00 45 998.9
20260506153943 23 112 0.0 6.4 0.00 0.00 0.00 45 999.0
20260506153443 23 180 0.0 3.2 0.00 0.00 0.00 45 999.4
20260506152943 23 112 0.0 0.0 0.00 0.00 0.00 45 999.7
20260506152443 23 0 0.0 4.8 0.00 0.00 0.00 46 999.4
20260506151943 23 22 0.0 1.6 0.00 0.00 0.00 46 1000.1
20260506151443 -17 180 0.0 0.0 0.00 0.00 0.00 1001.1
20260506150943 -17 180 0.0 0.0 0.00 0.00 0.00 1000.4
20260506150443 24 180 0.0 0.0 0.00 0.00 0.00 45 996.7
20260506145943 24 180 0.0 0.0 0.00 0.00 0.00 45 996.7
20260506145443 24 180 0.0 0.0 0.00 0.00 0.00 45 999.8
20260506144943 24 22 0.0 0.0 0.00 0.00 0.00 45 1001.3
20260506144443 -17 112 0.0 0.0 0.00 0.00 0.00 1000.8
20260506143943 -17 112 0.0 0.0 0.00 0.00 0.00 996.0
20260506143443 25 112 0.0 0.0 0.00 0.00 0.00 44 997.2
20260506142943 25 112 0.0 0.0 0.00 0.00 0.00 44 998.5
20260506142443 25 22 0.0 3.2 0.00 0.00 0.00 44 999.0
20260506141943 25 22 0.0 0.0 0.00 0.00 0.00 44 999.7
20260506141443 25 202 0.0 0.0 0.00 0.00 0.00 44 999.2
20260506140943 24 112 0.0 0.0 0.00 0.00 0.00 44 999.6
20260506140443 24 22 0.0 0.0 0.00 0.00 0.00 44 999.8
20260506135943 24 22 0.0 0.0 0.00 0.00 0.00 44 1000.6
20260506135443 -17 90 0.0 0.0 0.00 0.00 0.00 1001.5
20260506134943 -17 90 0.0 0.0 0.00 0.00 0.00 999.9
20260506134443 25 90 0.0 0.0 0.00 0.00 0.00 44 997.5
20260506133943 25 90 0.0 0.0 0.00 0.00 0.00 44 999.2
20260506133443 25 22 0.0 0.0 0.00 0.00 0.00 44 1000.0
20260506132943 25 22 0.0 4.8 0.00 0.00 0.00 43 1000.5
20260506132443 25 22 0.0 1.6 0.00 0.00 0.00 44 1000.4
20260506131943 25 22 0.0 0.0 0.00 0.00 0.00 44 999.7
20260506131443 25 90 0.0 0.0 0.00 0.00 0.00 45 1000.3
20260506130943 25 247 0.0 0.0 0.00 0.00 0.00 45 1000.5
20260506130443 25 90 0.0 0.0 0.00 0.00 0.00 45 1001.7
20260506125943 -17 112 0.0 0.0 0.00 0.00 0.00 1002.1
20260506125443 -17 112 0.0 0.0 0.00 0.00 0.00 1002.3
20260506124943 -17 112 0.0 0.0 0.00 0.00 0.00 1002.5
20260506124443 -17 112 0.0 0.0 0.00 0.00 0.00 1002.4
20260506123943 -17 112 0.0 0.0 0.00 0.00 0.00 1001.9
20260506123443 -17 112 0.0 0.0 0.00 0.00 0.00 1002.7
20260506122943 -17 90 0.0 0.0 0.00 0.00 0.00 1002.4
20260506122443 -17 90 0.0 0.0 0.00 0.00 0.00 998.0
20260506121943 23 90 0.0 0.0 0.00 0.00 0.00 48 1000.1
20260506121443 23 90 0.0 0.0 0.00 0.00 0.00 48 1001.1
20260506120943 23 112 0.0 1.6 0.00 0.00 0.00 48 1001.0
20260506120443 23 112 0.0 0.0 0.00 0.00 0.00 49 1001.5
20260506115943 23 112 0.0 0.0 0.00 0.00 0.00 49 1001.3
20260506115443 23 0 0.0 0.0 0.00 0.00 0.00 50 1001.5
20260506114943 23 112 0.0 0.0 0.00 0.00 0.00 10 1002.7
20260506114443 -17 180 0.0 0.0 0.00 0.00 0.00 1002.7
20260506113943 -17 180 0.0 0.0 0.00 0.00 0.00 998.7
20260506113443 23 180 0.0 0.0 0.00 0.00 0.00 51 1000.3
20260506112943 23 180 0.0 0.0 0.00 0.00 0.00 51 1001.6
20260506112443 23 180 0.0 0.0 0.00 0.00 0.00 51 1001.9
20260506111943 23 22 0.0 0.0 0.00 0.00 0.00 51 1002.0
20260506111443 -17 0 0.0 0.0 0.00 0.00 0.00 1003.1
20260506110943 -17 0 0.0 0.0 0.00 0.00 0.00 1002.8
20260506110443 23 0 0.0 0.0 0.00 0.00 0.00 51 999.3
20260506105943 23 0 0.0 0.0 0.00 0.00 0.00 51 1001.3
20260506105443 23 0 0.0 0.0 0.00 0.00 0.00 51 1001.3
20260506104943 23 0 0.0 0.0 0.00 0.00 0.00 52 1001.8
20260506104443 23 90 0.0 0.0 0.00 0.00 0.00 52 1001.6
20260506103943 23 180 0.0 0.0 0.00 0.00 0.00 51 1001.9
20260506103443 23 22 0.0 0.0 0.00 0.00 0.00 51 1001.8
20260506102943 23 202 0.0 0.0 0.00 0.00 0.00 51 1002.2
20260506102443 23 0 0.0 0.0 0.00 0.00 0.00 51 1002.3
20260506101943 23 22 0.0 0.0 0.00 0.00 0.00 51 1001.7
20260506101443 23 202 0.0 0.0 0.00 0.00 0.00 51 1002.2
20260506100943 23 270 0.0 0.0 0.00 0.00 0.00 51 1001.7
20260506100443 23 0 0.0 0.0 0.00 0.00 0.00 52 1002.4
20260506095943 23 22 0.0 0.0 0.00 0.00 0.00 52 1002.4
20260506095443 23 180 0.0 0.0 0.00 0.00 0.00 52 1002.0
20260506094943 23 180 0.0 0.0 0.00 0.00 0.00 52 1001.9
20260506094443 23 90 0.0 0.0 0.00 0.00 0.00 52 1002.5
20260506093943 23 90 0.0 0.0 0.00 0.00 0.00 52 1002.3
20260506093443 23 112 0.0 0.0 0.00 0.00 0.00 52 1002.1
20260506092943 23 202 0.0 0.0 0.00 0.00 0.00 50 1002.5
20260506092443 23 270 0.0 0.0 0.00 0.00 0.00 50 1002.2
20260506091943 23 180 0.0 0.0 0.00 0.00 0.00 50 1002.4
20260506091443 23 202 0.0 0.0 0.00 0.00 0.00 50 1001.7
20260506090943 23 202 0.0 0.0 0.00 0.00 0.00 51 1002.0
20260506090443 23 202 0.0 0.0 0.00 0.00 0.00 51 1001.7
20260506085943 23 202 0.0 3.2 0.00 0.00 0.00 52 1001.6
20260506085444 23 202 0.0 3.2 0.00 0.00 0.00 52 1002.1
20260506084943 23 202 0.0 0.0 0.00 0.00 0.00 53 1002.6
20260506084443 22 202 0.0 0.0 0.00 0.00 0.00 52 1002.0
20260506083943 22 270 0.0 0.0 0.00 0.00 0.00 53 1002.1
20260506083443 22 112 0.0 0.0 0.00 0.00 0.00 53 1002.7
20260506082943 22 112 0.0 0.0 0.00 0.00 0.00 53 1002.6
20260506082443 22 112 0.0 0.0 0.00 0.00 0.00 53 1002.6
20260506081943 22 112 0.0 0.0 0.00 0.00 0.00 54 1002.7
20260506081443 22 202 0.0 0.0 0.00 0.00 0.00 54 1002.6
20260506080943 22 202 0.0 0.0 0.00 0.00 0.00 54 1003.4
20260506080443 -17 202 0.0 0.0 0.00 0.00 0.00 1004.1
20260506073443 21 202 0.0 0.0 0.00 0.00 0.00 58 1002.7
20260506072943 21 202 0.0 4.8 0.00 0.00 0.00 58 1003.1
20260506072443 21 202 0.0 3.2 0.00 0.00 0.00 58 1003.7
20260506071943 -17 202 0.0 0.0 0.00 0.00 0.00 1004.2
20260506071443 -17 202 0.0 0.0 0.00 0.00 0.00 1003.4
20260506070943 21 202 0.0 0.0 0.00 0.00 0.00 59 1001.0
20260506070443 21 202 0.0 0.0 0.00 0.00 0.00 59 1001.0
20260506062443 18 202 0.0 0.0 0.00 0.00 0.00 65 1003.1
20260506061943 18 202 0.0 4.8 0.00 0.00 0.00 65 1003.0
20260506061443 18 202 0.0 0.0 0.00 0.00 0.00 66 1002.6
20260506060943 17 202 0.0 0.0 0.00 0.00 0.00 66 1002.9
20260506060443 17 270 0.0 0.0 0.00 0.00 0.00 66 1002.8
20260506050944 16 202 0.0 0.0 0.00 0.00 0.00 67 1002.6
20260506050444 16 270 0.0 0.0 0.00 0.00 0.00 67 1002.4
20260506044944 16 202 0.0 0.0 0.00 0.00 0.00 67 1003.0
20260506044444 15 270 0.0 0.0 0.00 0.00 0.00 67 1002.4
20260506043944 15 202 0.0 0.0 0.00 0.00 0.00 67 1002.3
20260506043444 15 202 0.0 0.0 0.00 0.00 0.00 66 1002.4
20260506042944 15 202 0.0 0.0 0.00 0.00 0.00 66 1002.3
20260506042444 15 202 0.0 0.0 0.00 0.00 0.00 66 1002.1
20260506041944 15 202 0.0 0.0 0.00 0.00 0.00 66 1002.3
20260506041444 15 202 0.0 0.0 0.00 0.00 0.00 66 1001.3
20260506040944 15 202 0.0 0.0 0.00 0.00 0.00 66 1001.6
20260506040444 15 202 0.0 0.0 0.00 0.00 0.00 65 1002.2
20260506035944 15 202 0.0 0.0 0.00 0.00 0.00 65 1001.7
20260506035444 15 202 0.0 0.0 0.00 0.00 0.00 65 1001.2
20260506034944 15 202 0.0 0.0 0.00 0.00 0.00 65 1001.6
20260506034444 15 202 0.0 0.0 0.00 0.00 0.00 65 1001.8
20260506033944 15 202 0.0 0.0 0.00 0.00 0.00 65 1001.7
20260506033444 15 202 0.0 0.0 0.00 0.00 0.00 65 1002.4
20260506032944 15 202 0.0 0.0 0.00 0.00 0.00 65 1001.3
20260506032444 15 202 0.0 0.0 0.00 0.00 0.00 64 1002.1
20260506031944 15 202 0.0 0.0 0.00 0.00 0.00 64 1001.7
20260506031444 16 202 0.0 0.0 0.00 0.00 0.00 64 1001.9
20260506030944 16 202 0.0 0.0 0.00 0.00 0.00 64 1001.4
20260506030444 16 202 0.0 0.0 0.00 0.00 0.00 64 1001.4